Regional Weather Roundup
Issued by NWS Burlington, VT

Current Version | Previous Version | Text Only | Print | Product List | Glossary On
Versions: 1 2 3 4 5 6 7 8 9 10 11 12 13 14 15 16 17 18 19 20 21 22 23 24 25 26 27 28 29 30 31 32 33 34 35 36 37 38 39 40 41 42 43 44 45 46 47 48 49 50
000
ASUS41 KBTV 262130
RWRBTV
VERMONT REGIONAL WEATHER ROUNDUP
NATIONAL WEATHER SERVICE BURLINGTON VT
400 PM EST SUN FEB 26 2017

NOTE: "FAIR" INDICATES FEW OR NO CLOUDS BELOW 12,000 FEET WITH NO
SIGNIFICANT WEATHER AND/OR OBSTRUCTIONS TO VISIBILITY.

* THESE REPORTS ARE NOT UNDER NWS QUALITY CONTROL AND/OR DO NOT
  REPORT WEATHER SUCH AS PRECIPITATION AND FOG.

VTZ001>019-262200-
_____VERMONT_____


CITY           SKY/WX    TMP DP  RH WIND       PRES   REMARKS
BURLINGTON     PTSUNNY   34   9  35 NW17G23   29.97R WCI  23
MONTPELIER     PTSUNNY   28  10  46 NW16G26   29.93R WCI  16
MORRISVILLE    MOSUNNY   29   7  39 W10G20    29.94R WCI  20
ST. JOHNSBURY*   N/A     30  11  45 MISG      29.89R
LYNDONVILLE*   FAIR      26  13  58 W9G22     29.91R WCI  16
MIDDLEBURY*    PTSUNNY   32 -10  16 NW10G21   29.98R WCI  23
RUTLAND*       MOSUNNY   31  14  49 W15       29.96R WCI  20
SPRINGFIELD    CLOUDY    33  10  38 W10G26    29.95R WCI  25
HIGHGATE*      FAIR      30  11  46 W8        29.98R WCI  22
NEWPORT*       PTSUNNY   26  12  55 NW6       29.92R WCI  19
BENNINGTON     CLOUDY    32  15  49 NW10G22   29.98R WCI  24
SUTTON*          N/A     23 N/A N/A MISG        N/A
ISLAND POND*     N/A     23 N/A N/A W16         N/A  WCI  10
GALLUP MILLS*    N/A     25 N/A N/A MISG        N/A
UNION VILLAGE*   N/A     34 N/A N/A MISG        N/A
MT. MANSFIELD*   N/A     14 N/A N/A W9G81       N/A  WCI   2

_____LAKE CHAMPLAIN_____


CITY           SKY/WX    TMP DP  RH WIND       PRES   REMARKS
BURTON ISLAND*   N/A     32  14  47 NW13G18     N/A  WCI  22
COLCHESTER RF*   N/A     34  12  40 NW22G30     N/A  WCI  22
DIAMOND ISL*     N/A     34  10  37 W15G22      N/A  WCI  24

$$

NYZ007-026>031-035-052-083-087-262200-
_____NORTHERN NEW YORK_____


CITY           SKY/WX    TMP DP  RH WIND       PRES   REMARKS
PLATTSBURGH    MOSUNNY   34   7  32 NW10G17   29.98R WCI  26
SARANAC LAKE   PTSUNNY   25  12  58 W8G18     29.89R WCI  16
MASSENA        SUNNY     35  12  38 W13G22    29.98S WCI  26
OGDENSBURG*    FAIR      35  17  46 SW12G18   29.99  WCI  27
POTSDAM*       MOSUNNY   34  18  51 W17       29.98R WCI  23
STARK FALLS*     N/A     28 N/A N/A W14         N/A  WCI  17
WATERTOWN      PTSUNNY   34  23  64 W16G23    30.03R WCI  24
FT DRUM        CLOUDY    32  16  51 W10G20    29.99R WCI  24
ALBANY         PTSUNNY   34  16  47 W17       30.04R WCI  23
GLENS FALLS    CLOUDY    35  15  44 W10       30.01R WCI  27

$$
NHZ002-005-011-262200-
_____NEW HAMPSHIRE_____


CITY           SKY/WX    TMP DP  RH WIND       PRES   REMARKS
LEBANON        MOSUNNY   35  14  42 NW10G23   29.92R WCI  27
KEENE          CLOUDY    35  13  40 N13       29.95R WCI  26
MT WASHINGTON  FOG        3   3 100 W58G70      N/A  VSB 1/16WCI -28
PLYMOUTH       FAIR      33   9  36 NW15G29   29.89R WCI  23
WHITEFIELD     CLOUDY    30  14  51 W7G24     29.86R WCI  23

$$

_____REGIONAL QUEBEC LOCATIONS_____


CITY           SKY/WX    TMP DP  RH WIND       PRES   REMARKS
MONTREAL       MOSUNNY   28   9  43 W21G28    29.97R WCI  15
QUEBEC CITY    FLURRIES  25  16  68 W18G24    29.83R WCI  11
SHERBROOKE     FLURRIES  21  14  73 W13G20    29.89R WCI   9

_____REGIONAL ONTARIO LOCATIONS_____


CITY           SKY/WX    TMP DP  RH WIND       PRES   REMARKS
OTTAWA         MOSUNNY   32  12  43 W7        29.95S WCI  26

______KEY______
VSB  - VISIBILITY IN MILES
WCI  - WIND CHILL INDEX
HX   - HEAT INDEX
$$
NNNN




USA.gov is the U.S. government's official web portal to all federal, state and local government web resources and services.